World > North America > United States > New York

New York, New York Regional Weather

Lat: 40.71N, Lon: 74.01W
Wx Zone: NYZ072
Warning FLW WEATHER ALERT - SEVERE THUNDERSTORM WARNING (More Info. Click Here) Warning
Feedback

New York, NY Regional Weather

Expires:201908212300;;003395
ASUS41 KOKX 212214
RWROKX

Regional Weather Roundup
National Weather Service New York NY
600 PM EDT WED AUG 21 2019

Note: "FAIR" indicates few or no clouds below 12,000 feet with no
significant weather and/or obstructions to visibility.


NYZ071-072-176-178-NJZ106-104-212300-
New York City Metro Area
  
CITY           SKY/WX    TMP DP  RH WIND       PRES   REMARKS
Central Park   RAIN      77  75  93 VRB5G18   29.88R VSB 3/4          
Bronx Lehman C   N/A     84  72  65 W5          N/A                   
LaGuardia Arpt TSTM      83  72  69 VRB5G25   29.84R                  
Queens College   N/A     82  73  74 S13         N/A                   
Kennedy Intl   PTSUNNY   81  75  82 S20       29.85F                  
Breezy Point   NOT AVBL                                               
Brooklyn Coll    N/A     82  70  65 W21G37      N/A                   
Staten Island    N/A     75  72  88 E3          N/A                   
Newark/Liberty TSTM      76  70  82 S3        29.85R                  
Teterboro      FAIR      83  74  74 W13       29.83F THUNDER          
$$
 

SKY/WX - Weather  TMP - Temperature  DP - Dew Point  RH - Relative Humidity
WIND - Wind Direction/Speed PRES - Barometric Pressure VSB - Visibility
WCI - Wind Chill Index E13G22 Wind - East Wind 13 mph/Gusts of 22 mph